Oshkosh, WI

4:20 PM CDT on April 20, 2018 (GMT -0500)
Wittman Regional

Weather History for KOSH - October, 2012

Change the Weather History Date:

Friday, October 5, 2012

  Actual Average Record
Temperature  
Mean Temperature 44 °F -  
Max Temperature 51 °F 62 °F 84 °F (2005)
Min Temperature 37 °F 43 °F 25 °F (1980)
Degree Days  
Heating Degree Days 22    
Moisture  
Dew Point 27 °F    
Average Humidity 50    
Maximum Humidity 68    
Minimum Humidity 36    
Precipitation  
Precipitation 0.00 in - - ()
Sea Level Pressure  
Sea Level Pressure 30.03 in    
Wind  
Wind Speed 9 mph (West)    
Max Wind Speed 21 mph    
Max Gust Speed 31 mph    
Visibility 10 miles    
Events      
Averages and records for this station are not official NWS values.
T = Trace of Precipitation, MM = Missing Value Source: NWS Daily Summary

Daily Weather History Graph

Daily Weather History Graph

Search for Another Location

Airport or City:

Astronomy

Oct. 05, 2012 Rise Set
Actual Time 6:57 AM CDT 6:26 PM CDT
Civil Twilight 6:28 AM CDT 6:55 PM CDT
Nautical Twilight 5:55 AM CDT 7:29 PM CDT
Astronomical Twilight 5:21 AM CDT 8:02 PM CDT
Moon 9:40 PM CDT (10/5) 12:14 PM CDT (10/5)
Length of Visible Light 12h 27m
Length of Day
11h 29m
Waning Gibbous, 74% of the Moon is Illuminated
Oct 5
Waning Gibbous
Oct 8
Last Quarter
Oct 15
New
Oct 21
First Quarter
Oct 29
Full

Hourly Weather History & Observations

Time (CDT) Temp. Windchill Dew Point Humidity Pressure Visibility Wind Dir Wind Speed Gust Speed Precip Events Conditions
12:53 AM 43.0 °F 38.8 °F 30.0 °F 60% 30.06 in 10.0 mi West 6.9 mph - N/A   Clear
1:53 AM 39.9 °F 35.1 °F 30.0 °F 68% 30.07 in 10.0 mi WSW 6.9 mph - N/A   Clear
3:53 AM 41.0 °F 36.4 °F 28.0 °F 60% 30.06 in 10.0 mi West 6.9 mph - N/A   Clear
4:53 AM 41.0 °F 35.2 °F 28.0 °F 60% 30.07 in 10.0 mi West 9.2 mph - N/A   Clear
5:53 AM 39.0 °F 34.8 °F 28.0 °F 65% 30.07 in 10.0 mi West 5.8 mph 16.1 mph N/A   Clear
6:53 AM 37.9 °F 34.4 °F 28.0 °F 68% 30.07 in 10.0 mi Variable 4.6 mph - N/A   Clear
7:53 AM 39.9 °F 33.9 °F 28.9 °F 65% 30.07 in 10.0 mi WSW 9.2 mph - N/A   Clear
8:53 AM 43.0 °F 36.0 °F 30.0 °F 60% 30.07 in 10.0 mi WSW 13.8 mph 18.4 mph N/A   Clear
9:53 AM 45.0 °F 38.9 °F 28.9 °F 53% 30.06 in 10.0 mi West 12.7 mph 21.9 mph N/A   Clear
10:53 AM 46.9 °F - 28.9 °F 50% 30.05 in 10.0 mi West 12.7 mph 21.9 mph N/A   Clear
11:53 AM 48.9 °F - 28.0 °F 44% 30.04 in 10.0 mi WSW 12.7 mph 24.2 mph N/A   Clear
12:53 PM 50.0 °F - 27.0 °F 41% 30.02 in 10.0 mi West 10.4 mph 21.9 mph N/A   Clear
1:53 PM 50.0 °F - 27.0 °F 41% 30.00 in 10.0 mi SW 11.5 mph 21.9 mph N/A   Clear
2:53 PM 50.0 °F - 24.1 °F 36% 30.00 in 10.0 mi West 10.4 mph 20.7 mph N/A   Clear
3:53 PM 50.0 °F - 25.0 °F 38% 30.00 in 10.0 mi WSW 10.4 mph 18.4 mph N/A   Clear
4:53 PM 50.0 °F - 25.0 °F 38% 29.98 in 10.0 mi WSW 8.1 mph 23.0 mph N/A   Clear
5:53 PM 48.9 °F - 25.0 °F 39% 29.99 in 10.0 mi West 9.2 mph - N/A   Partly Cloudy
6:53 PM 48.9 °F - 25.0 °F 39% 30.01 in 10.0 mi West 6.9 mph 17.3 mph N/A   Overcast
7:53 PM 48.0 °F - 26.1 °F 42% 30.01 in 10.0 mi WNW 10.4 mph 19.6 mph N/A   Overcast
8:53 PM 46.9 °F - 25.0 °F 42% 30.01 in 10.0 mi WNW 13.8 mph - N/A   Overcast
9:53 PM 44.1 °F 37.7 °F 25.0 °F 47% 30.02 in 10.0 mi NW 12.7 mph 25.3 mph N/A   Overcast
10:53 PM 42.1 °F 33.1 °F 23.0 °F 47% 30.02 in 10.0 mi WNW 20.7 mph 31.1 mph N/A   Overcast
11:53 PM 39.9 °F 34.5 °F 21.9 °F 49% 30.02 in 10.0 mi West 8.1 mph - N/A   Clear